Flag for U.S.A. Weather past 2 weeks in Bowling Green, Kentucky, U.S.A.

Now
72 °F

Mostly cloudy.


Feels Like: 75 °F
Forecast: 56 / 77 °F
Wind: 16 mph from Southwest

Location: Glasgow Municipal Airport

Current Time: Apr 25, 2015 at 1:44:28 PM

Latest Report: Apr 25, 2015 at 12:50 PM


Visibility: 10 mi

Pressure: 29.58 "Hg

Humidity: 66%

Dew point: 60 °F

Location of Bowling GreenLocation

Historic Weather in Bowling Green — Graph

°F

Bowling Green temperature yesterday

Maximum temperature yesterday: 65 °F (at 2:50 PM)
Minimum temperature yesterday: 33 °F (at 6:30 AM)
Average temperature yesterday: 51 °F

Past Weeks' High & Low Weather Summary

 TemperatureHumidityPressure
High80 °F (Apr 18, 3:50 PM)100% (Apr 11, 3:50 AM)30.27 "Hg (Apr 11, 3:50 AM)
Low33 °F (Apr 24, 6:30 AM)22% (Apr 12, 4:30 PM)29.52 "Hg (Apr 19, 4:30 PM)
Average59 °F73%29.99 "Hg
* Reported Apr 10 12:10 PM — Apr 25 12:10 PM, Bowling Green, Weather by CustomWeather, © 2015

Note: Actual official high and low records may vary slightly from our data, if they occured in-between our weather recording intervals... More about our weather records

Advertising

Bowling Green weather history for previous 24 hours

 ConditionsComfort  
Time TempWeatherWind HumidityBarometerVisibility
12:10 PM
Sat, Apr 25
70 °FBroken clouds.12 mph70%29.61 "Hg10 mi
11:50 AM68 °FPartly sunny.10 mph73%29.62 "Hg10 mi
11:30 AM66 °FMostly cloudy.10 mph76%29.65 "Hg10 mi
11:10 AM63 °FOvercast.9 mph81%29.66 "Hg10 mi
10:50 AM61 °FDrizzle. Mostly cloudy.8 mph85%29.68 "Hg10 mi
10:10 AM61 °FOvercast.5 mph85%29.68 "Hg10 mi
9:50 AM60 °FOvercast.3 mph86%29.70 "Hg10 mi
9:10 AM59 °FOvercast.5 mph87%29.71 "Hg10 mi
8:50 AM58 °FOvercast.3 mph87%29.70 "Hg10 mi
8:10 AM57 °FOvercast.3 mph89%29.71 "Hg10 mi
7:50 AM57 °FOvercast.No wind91%29.71 "Hg10 mi
7:30 AM56 °FOvercast.No wind91%29.71 "Hg10 mi
7:10 AM56 °FOvercast.No wind95%29.72 "Hg10 mi
6:50 AM55 °FOvercast.3 mph96%29.71 "Hg10 mi
6:30 AM54 °FDrizzle. Overcast.3 mph94%29.71 "Hg10 mi
6:10 AM56 °FRain. Overcast.3 mph79%29.73 "Hg10 mi
5:50 AM56 °FOvercast.5 mph77%29.73 "Hg10 mi
5:30 AM56 °FOvercast.No wind76%29.74 "Hg10 mi
5:10 AM55 °FOvercast.8 mph74%29.73 "Hg10 mi
4:50 AM55 °FOvercast.3 mph74%29.75 "Hg10 mi
4:10 AM55 °FOvercast.3 mph74%29.78 "Hg10 mi
3:50 AM56 °FLight rain. Overcast.No wind66%29.80 "Hg10 mi
3:30 AM56 °FOvercast.3 mph67%29.80 "Hg10 mi
3:10 AM56 °FOvercast.No wind68%29.81 "Hg10 mi
2:50 AM56 °FOvercast.No wind64%29.83 "Hg10 mi
2:30 AM56 °FOvercast.No wind63%29.83 "Hg10 mi
2:10 AM56 °FMostly cloudy.3 mph57%29.80 "Hg10 mi
1:50 AM56 °FPartly cloudy.No wind59%29.81 "Hg10 mi
1:30 AM56 °FPassing clouds.No wind55%29.81 "Hg10 mi
1:10 AM58 °FPassing clouds.No wind47%29.81 "Hg10 mi
12:50 AM58 °FPassing clouds.No wind47%29.83 "Hg10 mi
12:30 AM58 °FPassing clouds.3 mph45%29.84 "Hg10 mi
12:10 AM58 °FPassing clouds.No wind44%29.85 "Hg10 mi
11:50 PM
Fri, Apr 24
58 °FPassing clouds.3 mph45%29.86 "Hg10 mi
11:30 PM58 °FMostly cloudy.No wind46%29.86 "Hg10 mi
11:10 PM56 °FOvercast.No wind62%29.88 "Hg10 mi
10:10 PM56 °FMostly cloudy.No wind67%29.91 "Hg10 mi
9:50 PM56 °FDrizzle. Mostly cloudy.No wind70%29.91 "Hg10 mi
9:10 PM56 °FMostly cloudy.No wind66%29.92 "Hg10 mi
8:50 PM56 °FMostly cloudy.No wind64%29.92 "Hg10 mi
7:50 PM57 °FPassing clouds.No wind67%29.93 "Hg10 mi
7:30 PM58 °FPassing clouds.No wind64%29.92 "Hg10 mi
7:10 PM58 °FBroken clouds.No wind63%29.93 "Hg10 mi
6:30 PM60 °FScattered clouds.No wind63%29.94 "Hg10 mi
6:10 PM61 °FScattered clouds.No wind39%29.95 "Hg10 mi
5:50 PM63 °FScattered clouds.No wind32%29.95 "Hg10 mi
5:30 PM63 °FPartly sunny.No wind32%29.96 "Hg10 mi
5:10 PM63 °FPartly sunny.No wind37%29.98 "Hg10 mi
4:50 PM63 °FScattered clouds.No wind32%29.98 "Hg10 mi
4:30 PM64 °FSunny.3 mph29%29.98 "Hg10 mi
4:10 PM64 °FSunny.No wind28%29.97 "Hg10 mi
3:50 PM64 °FSunny.6 mph29%29.97 "Hg10 mi
3:10 PM64 °FSunny.No wind31%30.00 "Hg10 mi
2:50 PM65 °FSunny.3 mph27%30.01 "Hg10 mi
2:30 PM64 °FSunny.6 mph26%30.02 "Hg10 mi
2:10 PM64 °FSunny.3 mph23%30.03 "Hg10 mi
1:50 PM64 °FSunny.5 mph25%30.04 "Hg10 mi
1:10 PM63 °FSunny.3 mph25%30.07 "Hg10 mi
Weather by CustomWeather, © 2015

See weather overviewHow to use our weather pages